Time,TemperatureF,DewpointF,PressureIn,WindDirection,WindDirectionDegrees,WindSpeedMPH,WindSpeedGustMPH,Humidity,HourlyPrecipIn,Conditions,Clouds,dailyrainin,SoftwareType,DateUTC
2013-04-30 00:06:00,57.6,52.0,29.92,SSW,194,2.0,5.0,81,0.00,,,0.00,weatherlink.com 1.10,2013-04-30 04:06:00,
2013-04-30 00:21:00,57.4,52.0,29.92,South,186,2.0,5.0,81,0.00,,,0.00,weatherlink.com 1.10,2013-04-30 04:21:00,
2013-04-30 00:36:00,57.4,52.0,29.92,South,186,2.0,4.0,81,0.00,,,0.00,weatherlink.com 1.10,2013-04-30 04:36:00,
2013-04-30 00:51:00,57.3,52.0,29.92,South,181,2.0,6.0,81,0.00,,,0.00,weatherlink.com 1.10,2013-04-30 04:51:00,
2013-04-30 01:06:00,57.0,52.0,29.92,South,173,0.0,4.0,82,0.00,,,0.00,weatherlink.com 1.10,2013-04-30 05:06:00,
2013-04-30 01:21:00,56.8,51.0,29.92,South,190,0.0,4.0,82,0.00,,,0.00,weatherlink.com 1.10,2013-04-30 05:21:00,
2013-04-30 01:36:00,56.5,51.0,29.92,South,186,1.0,3.0,83,0.00,,,0.00,weatherlink.com 1.10,2013-04-30 05:36:00,
2013-04-30 01:51:00,56.1,51.0,29.92,South,186,0.0,2.0,83,0.00,,,0.00,weatherlink.com 1.10,2013-04-30 05:51:00,
2013-04-30 02:06:00,55.8,51.0,29.92,South,186,2.0,2.0,83,0.00,,,0.00,weatherlink.com 1.10,2013-04-30 06:06:00,
2013-04-30 02:21:00,55.7,51.0,29.92,South,185,2.0,4.0,84,0.00,,,0.00,weatherlink.com 1.10,2013-04-30 06:21:00,
2013-04-30 02:36:00,55.6,51.0,29.92,South,186,0.0,2.0,84,0.00,,,0.00,weatherlink.com 1.10,2013-04-30 06:36:00,
2013-04-30 02:51:00,55.4,51.0,29.91,South,186,0.0,2.0,84,0.00,,,0.00,weatherlink.com 1.10,2013-04-30 06:51:00,
2013-04-30 03:06:00,55.0,51.0,29.92,South,186,0.0,1.0,85,0.00,,,0.00,weatherlink.com 1.10,2013-04-30 07:06:00,
2013-04-30 03:21:00,54.4,50.0,29.91,South,186,0.0,0.0,85,0.00,,,0.00,weatherlink.com 1.10,2013-04-30 07:21:00,
2013-04-30 03:36:00,53.8,50.0,29.92,South,186,0.0,0.0,87,0.00,,,0.00,weatherlink.com 1.10,2013-04-30 07:36:00,
2013-04-30 03:51:00,53.7,50.0,29.92,South,185,1.0,3.0,88,0.00,,,0.00,weatherlink.com 1.10,2013-04-30 07:51:00,
2013-04-30 04:06:00,53.6,50.0,29.92,South,185,0.0,1.0,87,0.00,,,0.00,weatherlink.com 1.10,2013-04-30 08:06:00,
2013-04-30 04:21:00,53.5,50.0,29.93,South,185,1.0,3.0,87,0.00,,,0.00,weatherlink.com 1.10,2013-04-30 08:21:00,
2013-04-30 04:36:00,53.1,49.0,29.93,South,185,2.0,2.0,86,0.00,,,0.00,weatherlink.com 1.10,2013-04-30 08:36:00,
2013-04-30 04:51:00,52.3,49.0,29.93,South,185,0.0,3.0,87,0.00,,,0.00,weatherlink.com 1.10,2013-04-30 08:51:00,
2013-04-30 05:06:00,51.4,48.0,29.93,South,185,0.0,0.0,89,0.00,,,0.00,weatherlink.com 1.10,2013-04-30 09:06:00,
2013-04-30 05:22:00,50.7,48.0,29.93,South,185,0.0,0.0,90,0.00,,,0.00,weatherlink.com 1.10,2013-04-30 09:22:00,
2013-04-30 05:37:00,50.2,48.0,29.93,South,185,0.0,0.0,91,0.00,,,0.00,weatherlink.com 1.10,2013-04-30 09:37:00,
2013-04-30 05:52:00,49.7,48.0,29.93,South,185,0.0,0.0,92,0.00,,,0.00,weatherlink.com 1.10,2013-04-30 09:52:00,
2013-04-30 06:07:00,49.3,47.0,29.93,South,185,0.0,0.0,92,0.00,,,0.00,weatherlink.com 1.10,2013-04-30 10:07:00,
2013-04-30 06:22:00,48.9,47.0,29.93,South,185,0.0,0.0,93,0.00,,,0.00,weatherlink.com 1.10,2013-04-30 10:22:00,
2013-04-30 06:37:00,48.7,47.0,29.94,South,185,0.0,0.0,93,0.00,,,0.00,weatherlink.com 1.10,2013-04-30 10:37:00,
2013-04-30 06:52:00,48.6,47.0,29.94,South,185,0.0,1.0,94,0.00,,,0.00,weatherlink.com 1.10,2013-04-30 10:52:00,
2013-04-30 07:07:00,48.5,47.0,29.96,South,185,0.0,2.0,94,0.00,,,0.00,weatherlink.com 1.10,2013-04-30 11:07:00,
2013-04-30 07:22:00,48.7,47.0,29.96,South,185,0.0,0.0,95,0.00,,,0.00,weatherlink.com 1.10,2013-04-30 11:22:00,
2013-04-30 07:37:00,49.1,48.0,29.97,South,185,0.0,0.0,95,0.00,,,0.00,weatherlink.com 1.10,2013-04-30 11:37:00,
2013-04-30 07:52:00,50.3,49.0,29.97,South,184,1.0,3.0,96,0.00,,,0.00,weatherlink.com 1.10,2013-04-30 11:52:00,
2013-04-30 08:07:00,52.1,51.0,29.97,South,175,0.0,3.0,95,0.00,,,0.00,weatherlink.com 1.10,2013-04-30 12:07:00,
2013-04-30 08:22:00,53.8,52.0,29.98,SSW,195,0.0,1.0,92,0.00,,,0.00,weatherlink.com 1.10,2013-04-30 12:22:00,
2013-04-30 08:37:00,55.4,53.0,29.98,SSE,151,0.0,4.0,90,0.00,,,0.00,weatherlink.com 1.10,2013-04-30 12:37:00,
2013-04-30 08:52:00,57.8,53.0,29.98,SSE,166,3.0,5.0,85,0.00,,,0.00,weatherlink.com 1.10,2013-04-30 12:52:00,
2013-04-30 09:07:00,59.2,54.0,29.98,SSE,157,1.0,2.0,83,0.00,,,0.00,weatherlink.com 1.10,2013-04-30 13:07:00,
2013-04-30 09:22:00,61.3,55.0,29.99,South,179,3.0,5.0,80,0.00,,,0.00,weatherlink.com 1.10,2013-04-30 13:22:00,
2013-04-30 09:37:00,62.9,55.0,29.99,South,175,3.0,5.0,75,0.00,,,0.00,weatherlink.com 1.10,2013-04-30 13:37:00,
2013-04-30 09:52:00,64.3,55.0,29.99,South,191,3.0,7.0,73,0.00,,,0.00,weatherlink.com 1.10,2013-04-30 13:52:00,
2013-04-30 10:07:00,65.4,55.0,29.99,SSE,167,3.0,7.0,70,0.00,,,0.00,weatherlink.com 1.10,2013-04-30 14:07:00,
2013-04-30 10:22:00,66.4,56.0,29.99,SE,146,5.0,6.0,70,0.00,,,0.00,weatherlink.com 1.10,2013-04-30 14:22:00,
2013-04-30 10:37:00,67.9,57.0,29.98,South,175,4.0,6.0,68,0.00,,,0.00,weatherlink.com 1.10,2013-04-30 14:37:00,
2013-04-30 10:52:00,68.8,58.0,29.99,South,186,1.0,4.0,68,0.00,,,0.00,weatherlink.com 1.10,2013-04-30 14:52:00,
2013-04-30 11:07:00,70.0,57.0,29.99,SSW,200,5.0,9.0,64,0.00,,,0.00,weatherlink.com 1.10,2013-04-30 15:07:00,
2013-04-30 11:23:00,71.3,58.0,29.99,SSW,196,8.0,8.0,64,0.00,,,0.00,weatherlink.com 1.10,2013-04-30 15:23:00,
2013-04-30 11:38:00,72.2,57.0,29.98,SSW,198,5.0,7.0,59,0.00,,,0.00,weatherlink.com 1.10,2013-04-30 15:38:00,
2013-04-30 11:53:00,72.8,57.0,29.99,SSE,165,7.0,8.0,58,0.00,,,0.00,weatherlink.com 1.10,2013-04-30 15:53:00,
2013-04-30 12:08:00,73.4,57.0,29.99,South,188,3.0,7.0,57,0.00,,,0.00,weatherlink.com 1.10,2013-04-30 16:08:00,
2013-04-30 12:23:00,74.4,56.0,29.99,SSW,194,5.0,7.0,53,0.00,,,0.00,weatherlink.com 1.10,2013-04-30 16:23:00,
2013-04-30 12:38:00,75.3,57.0,29.98,SSW,213,4.0,7.0,54,0.00,,,0.00,weatherlink.com 1.10,2013-04-30 16:38:00,
2013-04-30 12:53:00,76.2,57.0,29.98,South,181,2.0,9.0,51,0.00,,,0.00,weatherlink.com 1.10,2013-04-30 16:53:00,
2013-04-30 13:08:00,77.0,56.0,29.98,South,175,4.0,7.0,49,0.00,,,0.00,weatherlink.com 1.10,2013-04-30 17:08:00,
2013-04-30 13:23:00,77.9,58.0,29.97,South,173,5.0,9.0,51,0.00,,,0.00,weatherlink.com 1.10,2013-04-30 17:23:00,
2013-04-30 13:38:00,78.4,59.0,29.96,South,180,0.0,6.0,51,0.00,,,0.00,weatherlink.com 1.10,2013-04-30 17:38:00,
2013-04-30 13:53:00,78.7,57.0,29.95,South,186,3.0,7.0,47,0.00,,,0.00,weatherlink.com 1.10,2013-04-30 17:53:00,
2013-04-30 14:08:00,79.0,57.0,29.95,South,178,3.0,6.0,47,0.00,,,0.00,weatherlink.com 1.10,2013-04-30 18:08:00,
2013-04-30 14:23:00,80.3,59.0,29.94,WSW,248,2.0,5.0,49,0.00,,,0.00,weatherlink.com 1.10,2013-04-30 18:23:00,
2013-04-30 14:38:00,81.4,57.0,29.94,NNE,17,2.0,5.0,44,0.00,,,0.00,weatherlink.com 1.10,2013-04-30 18:38:00,
2013-04-30 14:53:00,81.9,58.0,29.93,West,277,1.0,3.0,44,0.00,,,0.00,weatherlink.com 1.10,2013-04-30 18:53:00,
2013-04-30 15:08:00,82.9,59.0,29.93,SE,130,2.0,5.0,44,0.00,,,0.00,weatherlink.com 1.10,2013-04-30 19:08:00,
2013-04-30 15:23:00,82.4,57.0,29.93,WNW,301,2.0,4.0,42,0.00,,,0.00,weatherlink.com 1.10,2013-04-30 19:23:00,
2013-04-30 15:38:00,83.8,59.0,29.92,ESE,113,3.0,4.0,43,0.00,,,0.00,weatherlink.com 1.10,2013-04-30 19:38:00,
2013-04-30 15:53:00,82.6,59.0,29.92,SSW,193,3.0,6.0,45,0.00,,,0.00,weatherlink.com 1.10,2013-04-30 19:53:00,
2013-04-30 16:08:00,83.3,58.0,29.92,SW,219,1.0,6.0,42,0.00,,,0.00,weatherlink.com 1.10,2013-04-30 20:08:00,
2013-04-30 16:23:00,82.4,57.0,29.92,SE,142,0.0,7.0,42,0.00,,,0.00,weatherlink.com 1.10,2013-04-30 20:23:00,
2013-04-30 16:38:00,84.7,59.0,29.92,SSE,161,3.0,6.0,42,0.00,,,0.00,weatherlink.com 1.10,2013-04-30 20:38:00,
2013-04-30 16:53:00,86.1,57.0,29.92,ENE,67,1.0,8.0,37,0.00,,,0.00,weatherlink.com 1.10,2013-04-30 20:53:00,
2013-04-30 17:08:00,86.9,58.0,29.91,ENE,60,1.0,5.0,37,0.00,,,0.00,weatherlink.com 1.10,2013-04-30 21:08:00,
2013-04-30 17:23:00,86.1,59.0,29.92,ENE,57,2.0,8.0,40,0.00,,,0.00,weatherlink.com 1.10,2013-04-30 21:23:00,
2013-04-30 17:38:00,85.2,56.0,29.93,East,99,1.0,7.0,37,0.00,,,0.00,weatherlink.com 1.10,2013-04-30 21:38:00,
2013-04-30 17:53:00,83.7,58.0,29.92,NE,46,1.0,5.0,41,0.00,,,0.00,weatherlink.com 1.10,2013-04-30 21:53:00,
2013-04-30 18:08:00,83.2,56.0,29.93,SSE,152,6.0,6.0,40,0.00,,,0.00,weatherlink.com 1.10,2013-04-30 22:08:00,
2013-04-30 18:23:00,81.7,56.0,29.93,SE,133,2.0,6.0,41,0.00,,,0.00,weatherlink.com 1.10,2013-04-30 22:23:00,
2013-04-30 18:38:00,81.4,56.0,29.93,South,176,2.0,6.0,42,0.00,,,0.00,weatherlink.com 1.10,2013-04-30 22:38:00,
2013-04-30 18:54:00,81.5,55.0,29.93,SSE,167,2.0,4.0,40,0.00,,,0.00,weatherlink.com 1.10,2013-04-30 22:54:00,
2013-04-30 19:09:00,80.1,56.0,29.94,ESE,115,1.0,7.0,43,0.00,,,0.00,weatherlink.com 1.10,2013-04-30 23:09:00,
2013-04-30 19:24:00,79.1,53.0,29.94,SE,134,0.0,6.0,41,0.00,,,0.00,weatherlink.com 1.10,2013-04-30 23:24:00,
2013-04-30 19:39:00,78.3,53.0,29.94,South,189,6.0,6.0,41,0.00,,,0.00,weatherlink.com 1.10,2013-04-30 23:39:00,
2013-04-30 19:54:00,77.6,53.0,29.94,SSE,168,0.0,5.0,42,0.00,,,0.00,weatherlink.com 1.10,2013-04-30 23:54:00,
2013-04-30 20:09:00,76.8,52.0,29.95,SE,146,0.0,2.0,42,0.00,,,0.00,weatherlink.com 1.10,2013-05-01 00:09:00,
2013-04-30 20:24:00,75.7,54.0,29.95,SE,144,0.0,1.0,47,0.00,,,0.00,weatherlink.com 1.10,2013-05-01 00:24:00,
2013-04-30 20:39:00,73.8,53.0,29.96,SE,144,0.0,1.0,49,0.00,,,0.00,weatherlink.com 1.10,2013-05-01 00:39:00,
2013-04-30 20:54:00,71.7,54.0,29.96,SE,144,0.0,2.0,53,0.00,,,0.00,weatherlink.com 1.10,2013-05-01 00:54:00,
2013-04-30 21:09:00,69.4,53.0,29.96,SE,144,0.0,2.0,57,0.00,,,0.00,weatherlink.com 1.10,2013-05-01 01:09:00,
2013-04-30 21:24:00,67.7,54.0,29.97,SE,144,0.0,1.0,61,0.00,,,0.00,weatherlink.com 1.10,2013-05-01 01:24:00,
2013-04-30 21:39:00,66.1,53.0,29.98,ESE,123,2.0,3.0,63,0.00,,,0.00,weatherlink.com 1.10,2013-05-01 01:39:00,
2013-04-30 21:54:00,64.9,54.0,29.98,ESE,119,0.0,2.0,67,0.00,,,0.00,weatherlink.com 1.10,2013-05-01 01:54:00,
2013-04-30 22:09:00,63.8,53.0,29.98,ESE,119,0.0,1.0,68,0.00,,,0.00,weatherlink.com 1.10,2013-05-01 02:09:00,
2013-04-30 22:24:00,62.7,53.0,29.98,ESE,119,0.0,2.0,70,0.00,,,0.00,weatherlink.com 1.10,2013-05-01 02:24:00,
2013-04-30 22:39:00,61.8,53.0,29.98,ESE,119,0.0,2.0,72,0.00,,,0.00,weatherlink.com 1.10,2013-05-01 02:39:00,
2013-04-30 22:54:00,61.0,53.0,29.99,ESE,119,0.0,0.0,75,0.00,,,0.00,weatherlink.com 1.10,2013-05-01 02:54:00,
2013-04-30 23:09:00,60.4,53.0,29.99,ESE,119,0.0,0.0,76,0.00,,,0.00,weatherlink.com 1.10,2013-05-01 03:09:00,
2013-04-30 23:24:00,59.6,52.0,29.99,ESE,119,0.0,2.0,77,0.00,,,0.00,weatherlink.com 1.10,2013-05-01 03:24:00,
2013-04-30 23:39:00,59.0,53.0,30.00,ESE,119,0.0,0.0,79,0.00,,,0.00,weatherlink.com 1.10,2013-05-01 03:39:00,
2013-04-30 23:54:00,58.5,52.0,30.00,ESE,119,0.0,0.0,79,0.00,,,0.00,weatherlink.com 1.10,2013-05-01 03:54:00,